www.pogodaiklimat.ru

Погода и климат >> Архив погоды >> Кувейт >> Кувейт Сити


ПОГОДА в Кувейт Сити

  • Прогноз погоды в Кувейт Сити
  • Монитор погоды в Кувейт Сити

АРХИВ ПОГОДЫ в Кувейт Сити

Время (UTC), дата Ветер
(напр.,м/с)
 
Видим.   Явления Облачность Т
(С)
Тd
(С)
f
(%)
Тe
(С)
Тes
(С)
Комфортность P
(гПа)
Po
(гПа)
Тmin
(С)
Tmax
(С)
R
(мм)
R24
(мм)
S
(см)
21 10.02 З 1-2
{6}
н/о н/о +15.3 +14.6 +17.8
00 11.02 С 2-5
{6}
н/о н/о +14.6
03 11.02 ЮВ 1-4
{5}
н/о н/о +14.7
06 11.02 С 2-4
{7}
н/о н/о +14.1
09 11.02 С 3-5
{6}
н/о н/о +16.0 +16.0 100 +16 +16 1017.2 1015.9
12 11.02 С 4-5
{8}
н/о н/о +17.3 +11.2 67 +17 +17 1015.7 1014.4
15 11.02 В 1-5
{6}
н/о н/о +16.6 +10.8 69 +17 +17 1016.4 1015.1
18 11.02 СЗ 1-3
{7}
н/о н/о +15.3 +13.1 87 +16 +16 1017.8 1016.5
21 11.02 СЗ 2-5
{8}
н/о н/о +14.1 +10.8 81 +14 +14 1018.6 1017.3 +13.9 +18.1
00 12.02 СЗ 2-5
{8}
н/о н/о +14.4 +8.9 70 +14 +14 1018.2 1016.9
03 12.02 Ю 2-5
{8}
н/о н/о +12.8 +12.8 100 +12 +12 1019.4 1018.1
06 12.02 СЗ 2-5
{8}
н/о н/о +14.4 +11.8 84 +14 +14 1021.2 1019.9
09 12.02 ЮЗ 2-9
{9}
н/о н/о +17.4 +8.5 56 +18 +18 1021.0 1019.7
12 12.02 ЮЗ 2-7
{10}
н/о н/о +19.0 +5.3 41 +20 +20 1020.5 1019.2
15 12.02 ЮЗ 1-3
{8}
н/о н/о +17.0 +5.4 46 +18 +18 1021.9 1020.6
18 12.02 СЗ 2-5
{8}
н/о н/о +15.9 +5.8 51 +16 +16 1024.0 1022.7
21 12.02 С 1-3
{5}
н/о н/о +14.6 +9.4 71 +15 +15 1024.2 1022.9 +12.2 +19.3
00 13.02 ЮЗ 1-2
{5}
н/о н/о +12.8 +10.6 86 +13 +13 1024.4 1023.1
03 13.02 ЮЗ 1-3
{7}
н/о н/о +12.6 +10.4 86 +13 +13 1025.6 1024.3
06 13.02 СЗ 2-5
{7}
н/о н/о +14.7 +9.3 70 +14 +14 1026.9 1025.6
09 13.02 С 2-4
{5}
н/о н/о +18.4 +7.8 50 +19 +19 1025.8 1024.5
12 13.02 СВ 1-3
{6}
н/о н/о +19.2 +4.7 38 +21 +21 комфорт 1023.8 1022.5
15 13.02 СВ 1-1
{3}
н/о н/о +16.6 +7.9 56 +18 +18 1024.0 1022.7
18 13.02 Ю 1-2
{3}
н/о н/о +16.2 +6.5 53 +17 +17 1023.6 1022.3
21 13.02 Ю 2-2
{4}
н/о н/о +14.6 +7.8 64 +15 +15 1022.9 1021.6 +12.4 +19.7
00 14.02 ЮЗ 1-1
{4}
н/о н/о +12.9 +11.2 89 +14 +14 1022.6 1021.3
03 14.02 СВ 1-1
{1}
н/о н/о +12.6
06 14.02 СВ 1-1
{3}
н/о н/о +15.9 +12.1 78 +17 +17 1023.3 1022.0
09 14.02 В 2-6
{6}
н/о н/о +18.9 +11.2 61 +20 +20 1021.0 1019.7
12 14.02 ЮВ 1-5
{7}
н/о н/о +19.2 +11.9 63 +21 +21 комфорт 1018.5 1017.2
15 14.02 Ю 3-8
{8}
н/о н/о +17.1 +11.6 70 +17 +17 1017.2 1015.9
18 14.02 Ю 2-4
{9}
н/о н/о +17.3 +9.0 58 +18 +18 1017.4 1016.1
21 14.02 ЮВ 2-5
{7}
н/о н/о +16.5 +12.3 +20.1
00 15.02 ЮВ 2-5
{7}
н/о н/о +17.0 +15.3 90 +18 +18 1016.4 1015.1
03 15.02 Ю 2-5
{7}
н/о н/о +17.4 +17.1 98 +18 +18 1015.5 1014.2
06 15.02 Ю 3-8
{11}
н/о н/о +18.3 +18.3 100 +19 +19 1016.3 1015.0
09 15.02 СВ 2-5
{14}
н/о н/о +20.0 +13.6 67 +23 +23 комфорт 1014.4 1013.1
12 15.02 Ю 3-7
{16}
н/о н/о +19.8 +13.8 68 +22 +22 комфорт 1013.3 1012.0
15 15.02 Ю 3-8
{9}
н/о н/о +16.9
18 15.02 Ю 3-7
{12}
н/о н/о +18.1
21 15.02 ЮЗ 2-5
{8}
н/о н/о +17.9 +17.8 99 +18 +18 1016.2 1014.9 +16.4 +21.6
00 16.02 СЗ 2-4
{8}
н/о н/о +17.2
03 16.02 С 6-12
{12}
н/о н/о +14.6
06 16.02 С 6-10
{13}
н/о н/о +14.8 +9.2 69 +13 +13 1020.2 1018.9
09 16.02 С 5-8
{11}
н/о н/о +19.0 +4.3 38 +19 +19 1019.8 1018.5
12 16.02 С 5-8
{11}
н/о н/о +19.7 +0.6 28 +20 +20 1019.0 1017.7
15 16.02 С 3-7
{9}
н/о н/о +18.1 +2.1 34 +18 +18 1020.0 1018.7
18 16.02 С 2-5
{9}
н/о н/о +16.2 +4.2 45 +16 +16 1022.0 1020.7
21 16.02 СВ 1-2
{5}
н/о н/о +15.0 +5.9 54 +16 +16 1021.7 1020.4 +13.5 +20.3
00 17.02 З 1-1
{5}
н/о н/о +13.8 +6.9 63 +15 +15 1021.3 1020.0
03 17.02 Ю 1-2
{3}
н/о н/о +12.0 +7.6 74 +12 +12 1021.7 1020.4
06 17.02 З 1-2
{5}
н/о н/о +17.1 +4.6 44 +19 +19 1023.2 1021.9
09 17.02 СЗ 2-4
{4}
н/о н/о +19.1 +0.8 29 +20 +20 1022.0 1020.7
12 17.02 СВ 3-6
{7}
н/о н/о +20.9 +2.4 29 +22 +22 комфорт 1019.5 1018.2
15 17.02 ЮЗ 1-4
{7}
н/о н/о +19.3 +4.6 38 +21 +21 комфорт 1019.3 1018.0
18 17.02 В 2-4
{7}
н/о н/о +17.8 +5.7 45 +19 +19 1020.4 1019.1

 

Местоположение метеостанции Кувейт Сити (Кувейт): широта 29.33 долгота 48.05 высота над уровнем моря 11 м.

В архиве по умолчанию представлена погода в Кувейт Сити за последнюю неделю. Архивные данные за месяц целиком и за предыдущие месяцы, начиная с января 2011 года, Вы можете получить, выбрав интересующий диапазон дат из раскрывающегося списка и нажав кнопку "Ввод!".


*Определитесь, кто Вы:
робот инопланетянин человек

Внимание! Время в таблицах - всемирное. Для получения местного времени необходимо прибавить поправку, которая равна 3 ч.

Смотрите также архив погоды в соседних городах и на ближайших метеорологических станциях:

Погода в Аль-Шуаиба (Кувейт) (5 км)
Погода на Экспериментальной ферме (Кувейт) (12 км)
Погода в Эль-Кувейте (Кувейт) (14 км)
Погода Остров Файлака (Кувейт) (27 км)
Погода в Сулайбии (Кувейт) (33 км)
Погода в Эль-Джахра (Кувейт) (37 км)
Погода на Метеостанции Sabriyah (Кувейт) (51 км)
Погода на Метеостанции Jal Aliyah (Кувейт) (55 км)
Погода в Порту Juluiah (Кувейт) (56 км)
Погода в Минагише (Кувейт) (58 км)

Пояснения к столбцам:

Ветер - указаны скорость ветра в м/с - средняя за 10 мин, порывы в срок и между сроками (в фигурных скобках) и направление, откуда дует ветер: С - северный, СВ - северо-восточный, В - восточный, ЮВ - юго-восточный, Ю - южный, ЮЗ - юго-западный, З - западный, СЗ - северо-западный.
Видимость - горизонтальная дальность видимости в метрах или километрах. При видимости от 1 до 10 км при отсутствии осадков обычно наблюдается дымка, при ухудшении видимости до 1 км и менее - туман. В сухую погоду видимость может ухудшаться дымом, пылью или мглою.
Явления - указаны атмосферные явления, наблюдавшиеся в срок или в последний час перед сроком; фигурными скобками обозначены явления, наблюдавшиеся между сроками (за 1-3 часа до срока); квадратными скобками обозначены град или гололедные отложения с указанием их диаметра в мм.
Облачность - указаны через наклонную черту общая и нижняя облачность в баллах и высота нижней границы облаков в метрах; квадратными скобками обозначены формы облаков: Ci - перистые, Cs - перисто-слоистые, Cc - перисто-кучевые, Ac - высококучевые, As - высокослоистые, Sc - слоисто-кучевые, Ns - слоисто-дождевые, Cu - кучевые, Cb - кучево-дождевые. Подробнее классификацию облаков см. в Атласе облаков (PDF).
T - Температура воздуха - температура, измеренная на высоте 2 м над землей.
Td - Температура точки росы - температура, при понижении до которой содержащийся в воздухе водяной пар достигнет насыщения.
f - Относительная влажность воздуха - влажноcть воздуха, измеренная на высоте 2 м над землей.
Te - Эффективная температура - температура, которую ощущает одетый по сезону человек в тени. Характеристика душности погоды. При расчете учитывается влияние влажности воздуха и скорости ветра на теплоощущения человека.
Tes - Эффективная температура на солнце - температура, которую ощущает человек, с поправкой на солнечный нагрев. Характеристика знойности погоды. Зависит от высоты солнца над горизонтом, облачности и скорости ветра. Ночью, в пасмурную погоду, а также при ветре 12 м/с и более поправка равна нулю.
P - Атмосферное давление - приведенное к уровню моря атмосферное давление.
Po - Атмосферное давление - измеренное на уровне метеостанции атмосферное давление.
Tmin - Минимальная температура - минимум температуры воздуха на высоте 2 м над землей.
Tmax - Максимальная температура - максимум температуры воздуха на высоте 2 м над землей.
R - Количество осадков - Количество выпавших осадков за период времени, мм. При наведении курсора мыши на число - период времени, за который выпало указанное количество осадков.
R24 - Количество осадков - Количество выпавших осадков за 24 часа, мм.
S - Снежный покров - Высота снежного покрова, см. При наведении курсора мыши на число - состояние снежного покрова и степень покрытия местности в баллах.